DateTimeUTC,F1_A11,F1_S11,BsB_S11,BsG_S11,BsR_S11,BbsB_S11,BbsG_S11,BbsR_S11,BaB_A11,BaG_A11,BaR_A11,Tu_S11,T_S11,Uu_S11,U_S11,P_S11,T1_A11
2021-01-23T20:00:00Z,00000200,21000000,,,,,,,0000.57,0000.44,0000.49,16.2,23.2,,00.0,0651.3,30.9
2021-01-23T20:01:00Z,00000200,21000000,,,,,,,0000.86,0000.74,0000.44,16.2,23.3,,00.0,0651.3,30.9
2021-01-23T20:02:00Z,00000200,21000000,,,,,,,0000.57,0000.64,0000.49,16.2,23.3,,00.0,0651.3,30.9
2021-01-23T20:03:00Z,00000200,61000000,,,,,,,0000.61,0000.43,0000.32,16.2,23.3,,00.0,0651.3,30.9
2021-01-23T20:04:00Z,00000200,41000000,-000.98,0000.11,0000.36,-000.11,0000.08,0000.38,0000.15,0000.27,-000.04,16.4,23.1,,00.0,0652.1,30.9
2021-01-23T20:05:00Z,00000200,01000000,0000.24,0000.41,0000.44,0000.32,-000.08,0000.02,0000.31,0000.15,0000.38,16.4,23.1,,00.0,0652.2,30.9
2021-01-23T20:06:00Z,00000200,01000000,-000.38,-000.04,0000.14,0000.54,-000.02,0000.29,0000.62,0000.57,0000.24,16.4,23.0,,00.0,0652.2,30.9
2021-01-23T20:07:00Z,00000200,01000000,-000.92,0000.40,0000.33,0000.37,0000.10,0000.15,0000.32,0000.28,0000.19,16.4,23.0,,00.0,0652.2,30.9
2021-01-23T20:08:00Z,00000200,01000000,0000.28,0000.49,-000.03,0000.46,0000.19,0000.08,0000.71,0000.41,0000.81,16.3,23.0,,00.0,0652.2,30.9
2021-01-23T20:09:00Z,00000200,01000000,0000.52,-000.07,0000.26,-000.28,-000.05,0000.30,0000.24,0000.38,0000.31,16.3,23.0,,00.0,0652.2,30.9
2021-01-23T20:10:00Z,00000200,01000000,0000.44,0000.24,0000.26,0000.33,-000.08,-000.20,0000.01,-000.40,-000.48,16.3,22.9,,00.0,0652.2,30.9
2021-01-23T20:11:00Z,00000200,01000000,-000.27,0000.13,0000.50,0000.10,0000.22,0000.26,0000.76,0001.18,0000.66,16.3,22.9,,00.0,0652.2,30.9
2021-01-23T20:12:00Z,00000200,01000000,0000.19,0000.10,0000.48,0000.32,-000.15,0000.15,0000.01,0000.23,0000.44,16.3,22.9,,00.0,0652.3,30.9
2021-01-23T20:13:00Z,00000200,01000000,-000.37,0000.21,0000.29,0000.39,0000.02,0000.30,0000.49,0000.22,0000.21,16.4,22.9,,00.0,0652.3,30.9
2021-01-23T20:14:00Z,00000200,01000000,0000.54,0000.31,0000.50,0000.76,-000.13,0000.25,0002.08,0001.93,0001.36,16.5,23.0,,00.0,0652.3,30.9
2021-01-23T20:15:00Z,00000200,01000000,0001.43,0000.60,0000.76,0000.60,0000.00,0000.46,0016.04,0014.88,0012.03,16.5,23.0,,00.0,0652.3,30.9
2021-01-23T20:16:00Z,00000200,01000000,0000.82,0000.91,0000.54,0000.49,0000.32,0000.19,0013.24,0012.21,0009.74,16.6,23.0,,00.0,0652.3,30.9
2021-01-23T20:17:00Z,00000200,01000000,0001.80,0001.64,0001.21,-000.03,0000.34,0000.26,0021.37,0019.87,0016.07,16.6,23.0,,00.0,0652.3,30.9
2021-01-23T20:18:00Z,00000200,01000000,0001.79,0001.18,0001.18,0000.69,0000.22,0000.35,0022.86,0021.20,0017.30,16.6,23.0,,00.0,0652.3,30.9
2021-01-23T20:19:00Z,00000200,01000000,0008.86,0006.34,0004.19,0001.87,0001.26,0001.34,0094.81,0087.59,0069.84,16.6,23.0,,00.0,0652.4,30.9
2021-01-23T20:20:00Z,00000200,01000000,0012.85,0009.50,0006.16,0002.46,0002.10,0001.80,0158.43,0147.30,0119.20,16.5,23.0,,00.0,0652.4,30.9
2021-01-23T20:21:00Z,00000200,01000000,0005.84,0004.59,0002.86,0001.11,0000.67,0001.00,0076.60,0071.34,0057.51,16.5,23.0,,00.0,0652.4,30.9
2021-01-23T20:22:00Z,00000200,01000000,0002.67,0002.58,0001.64,0000.72,0000.40,0000.56,0035.28,0032.97,0026.60,16.5,23.0,,00.0,0652.4,30.9
2021-01-23T20:23:00Z,00000200,01000000,0000.29,0000.93,0000.52,-000.10,0000.03,0000.26,0015.95,0014.41,0012.01,16.5,23.0,,00.0,0652.4,30.9
2021-01-23T20:24:00Z,00000200,01000000,0003.06,0002.40,0001.64,0000.78,0000.43,0000.51,0033.82,0031.52,0025.06,16.4,23.0,,00.0,0652.4,30.9
2021-01-23T20:25:00Z,00000200,01000000,0010.61,0007.36,0005.06,0001.96,0001.99,0001.32,0115.42,0106.84,0086.67,16.4,22.9,,00.0,0652.4,30.9
2021-01-23T20:26:00Z,00000200,01000000,0007.40,0004.84,0003.41,0001.86,0001.06,0001.16,0088.67,0082.35,0066.84,16.4,22.9,,00.0,0652.4,30.9
2021-01-23T20:27:00Z,00000200,01000000,0009.44,0007.41,0004.54,0002.17,0001.85,0001.31,0112.35,0104.36,0083.99,16.4,22.9,,00.0,0652.4,30.9
2021-01-23T20:28:00Z,00000200,01000000,0010.03,0007.09,0004.76,0002.16,0001.60,0001.09,0115.94,0108.22,0086.96,16.5,22.9,,00.0,0652.4,30.9
2021-01-23T20:29:00Z,00000200,01000000,0010.05,0007.59,0005.16,0001.94,0001.70,0001.65,0131.05,0122.03,0099.50,16.6,23.0,,00.0,0652.4,30.9
2021-01-23T20:30:00Z,00000200,01000000,0008.28,0006.09,0003.80,0001.38,0001.28,0001.32,0092.02,0085.03,0068.63,16.6,23.0,,00.0,0652.4,30.9
2021-01-23T20:31:00Z,00000200,01000000,0009.24,0006.95,0004.83,0002.07,0001.82,0001.32,0123.37,0115.24,0093.80,16.7,23.0,,00.0,0652.4,30.9
2021-01-23T20:32:00Z,00000200,01000000,0000.83,-000.01,0000.52,0000.55,0000.11,0000.24,0008.56,0008.35,0006.31,16.7,23.0,,00.0,0652.4,30.9
2021-01-23T20:33:00Z,00000200,01000000,-000.08,0000.22,0000.55,-000.02,-000.09,0000.43,0002.31,0002.01,0002.00,16.7,23.0,,00.0,0652.4,30.9
2021-01-23T20:34:00Z,00000200,01000000,0000.40,0000.02,-000.01,0000.44,0000.25,0000.08,0001.81,0001.51,0001.62,16.6,23.0,,00.0,0652.4,30.9
2021-01-23T20:35:00Z,00000200,01000000,-000.26,0000.34,0000.63,0000.56,0000.02,0000.24,0001.75,0001.89,0001.39,16.6,23.0,,00.0,0652.4,30.9
2021-01-23T20:36:00Z,00000200,01000000,0001.49,0000.22,0000.28,0000.49,-000.23,-000.02,0001.48,0001.49,0000.65,16.6,23.0,,00.0,0652.5,30.9
2021-01-23T20:37:00Z,00000200,01000000,-000.36,-000.10,0000.20,0000.02,-000.05,0000.17,0001.21,0000.65,0000.86,16.5,23.0,,00.0,0652.5,30.9
2021-01-23T20:38:00Z,00000200,01000000,0000.25,0000.06,0000.04,-000.41,0000.11,0000.17,0001.04,0000.98,0001.16,16.5,23.0,,00.0,0652.5,30.9
2021-01-23T20:39:00Z,00000200,01000000,0000.14,0000.23,0000.20,0000.16,0000.04,0000.15,0001.25,0001.28,0000.79,16.5,23.0,,00.0,0652.5,30.9
2021-01-23T20:40:00Z,00000200,01000000,0000.56,0000.47,0000.25,0000.18,-000.01,0000.16,0000.88,0000.77,0000.22,16.5,23.0,,00.0,0652.5,30.9
2021-01-23T20:41:00Z,00000200,01000000,-000.07,0000.25,0000.35,0000.26,-000.12,0000.27,0001.28,0001.23,0001.45,16.5,22.9,,00.0,0652.5,30.9
2021-01-23T20:42:00Z,00000200,01000000,-000.25,0000.23,0000.09,-000.19,0000.15,0000.07,0000.97,0000.94,0000.46,16.5,22.9,,00.0,0652.5,30.9
2021-01-23T20:43:00Z,00000200,01000000,-000.65,-000.16,0000.49,0000.34,-000.13,0000.24,0001.14,0001.14,0000.73,16.5,23.0,,00.0,0652.5,30.9
2021-01-23T20:44:00Z,00000200,01000000,0000.38,0000.02,0000.23,0000.17,-000.16,-000.09,0000.72,0000.34,0000.86,16.6,23.0,,00.0,0652.6,30.9
2021-01-23T20:45:00Z,00000200,01000000,0000.19,0000.36,0000.40,-000.03,0000.01,0000.11,0000.64,0000.90,0000.38,16.7,23.0,,00.0,0652.5,30.9
2021-01-23T20:46:00Z,00000200,01000000,0001.04,0000.16,0000.19,0000.15,-000.22,0000.12,0000.90,0000.75,0000.34,16.7,23.0,,00.0,0652.5,30.9
2021-01-23T20:47:00Z,00000200,01000000,0000.13,0000.43,0000.71,-000.11,-000.15,0000.21,0000.94,0000.80,0000.77,16.7,23.0,,00.0,0652.6,30.9
2021-01-23T20:48:00Z,00000200,01000000,-000.07,0000.33,0000.11,0000.13,0000.07,-000.06,0000.68,0000.68,0000.62,16.7,23.0,,00.0,0652.6,30.9
2021-01-23T20:49:00Z,00000200,01000000,-000.09,0000.41,0000.76,0000.59,-000.29,0000.29,0000.62,0000.88,0000.48,16.6,23.0,,00.0,0652.6,30.9
2021-01-23T20:50:00Z,00000200,01000000,0000.20,0000.17,0000.28,0000.29,-000.14,0000.32,0000.81,0000.65,0000.60,16.6,23.0,,00.0,0652.7,30.9
2021-01-23T20:51:00Z,00000200,01000000,-000.06,0000.29,0000.10,0000.22,-000.06,0000.31,0000.49,0000.60,0000.25,16.6,23.0,,00.0,0652.7,30.9
2021-01-23T20:52:00Z,00000200,01000000,-000.08,0000.23,0000.52,0000.05,-000.10,0000.42,0000.72,0000.73,0000.26,16.6,23.0,,00.0,0652.7,30.9
2021-01-23T20:53:00Z,00000200,01000000,0000.19,0000.22,0000.40,-000.32,0000.05,0000.16,0000.69,0000.43,0000.84,16.5,23.0,,00.0,0652.7,30.9
2021-01-23T20:54:00Z,00000200,01000000,-000.40,0000.11,0000.09,0000.50,-000.00,0000.16,0000.66,0000.57,0000.38,16.5,23.0,,00.0,0652.8,30.9
2021-01-23T20:55:00Z,00000200,01000000,-000.03,0000.29,0000.23,0000.32,-000.18,-000.05,0000.31,0000.17,0000.32,16.5,23.0,,00.0,0652.8,30.9
2021-01-23T20:56:00Z,00000200,01000000,0000.14,0000.22,0000.26,-000.07,0000.03,0000.26,0000.70,0000.81,0000.45,16.5,22.9,,00.0,0652.8,30.9
2021-01-23T20:57:00Z,00000200,41000000,,,,,,,0001.13,0000.95,0000.61,16.5,22.9,,00.0,0652.7,30.9
2021-01-23T20:58:00Z,00000200,61000000,,,,,,,0000.31,0000.29,0000.48,16.2,23.1,,00.0,0651.9,30.9
2021-01-23T20:59:00Z,00000200,21000000,,,,,,,0000.08,0000.06,0000.12,16.3,23.2,,00.0,0651.9,30.9
